Change the Weather History Date:

Saturday, March 16, 2013

  Actual Average (KEMV) Record (KEMV)
Temperature  
Mean Temperature 60 °F -  
Max Temperature 75 °F 63 °F 82 °F (2002)
Min Temperature 45 °F 36 °F 22 °F (1988)
Degree Days  
Heating Degree Days 5    
Growing Degree Days 10 (Base 50)    
Moisture  
Dew Point 45 °F    
Average Humidity 63    
Maximum Humidity 91    
Minimum Humidity 36    
Precipitation  
Precipitation 0.01 in - - ()
Sea Level Pressure  
Sea Level Pressure 29.78 in    
Wind  
Wind Speed 2 mph (SSW)    
Max Wind Speed 15 mph    
Max Gust Speed 29 mph    
Visibility 10 miles    
Events Rain    
Averages and records for this station are not official NWS values.
T = Trace of Precipitation, MM = Missing Value Source: NWS Daily Summary

Daily Weather History Graph

Daily Weather History Graph

Search for Another Location

Airport or City:

Trip Planner

Search our weather history database for the weather conditions in past years. The results will help you decide how hot, cold, wet, or windy it might be!

Date:

Astronomy

Mar. 16, 2013 Rise Set
Actual Time 7:17 AM EDT 7:17 PM EDT
Civil Twilight 6:52 AM EDT 7:42 PM EDT
Nautical Twilight 6:22 AM EDT 8:12 PM EDT
Astronomical Twilight 5:52 AM EDT 8:43 PM EDT
Moon 9:54 AM EDT (3/16) No Moon Set
Length of Visible Light 12h 50m
Length of Day
11h 59m
Waxing Crescent, 23% of the Moon is Illuminated
Mar 16
Waxing Crescent
Mar 19
First Quarter
Mar 27
Full
Apr 3
Last Quarter
Apr 10
New

Hourly Weather History & Observations

Time (EDT) Temp. Dew Point Humidity Pressure Visibility Wind Dir Wind Speed Gust Speed Precip Events Conditions
12:15 AM 50.0 °F 34.0 °F 54% 29.90 in 10.0 mi SW 3.5 mph - N/A   Clear
12:35 AM 50.0 °F 33.8 °F 54% 29.89 in 10.0 mi SSW 3.5 mph - N/A   Clear
12:55 AM 50.0 °F 35.2 °F 57% 29.89 in 10.0 mi Calm Calm - N/A   Clear
1:15 AM 50.0 °F 35.1 °F 57% 29.88 in 10.0 mi SW 3.5 mph - N/A   Clear
1:35 AM 50.0 °F 35.6 °F 58% 29.88 in 10.0 mi SSW 3.5 mph - N/A   Clear
1:55 AM 50.0 °F 36.1 °F 59% 29.87 in 10.0 mi SSW 3.5 mph - N/A   Clear
2:15 AM 50.0 °F 36.1 °F 59% 29.87 in 10.0 mi SSW 3.5 mph - N/A   Clear
2:55 AM 50.0 °F 37.4 °F 62% 29.86 in 10.0 mi Calm Calm - N/A   Overcast
3:15 AM 50.0 °F 37.6 °F 62% 29.86 in 10.0 mi Calm Calm - N/A   Mostly Cloudy
3:35 AM 50.0 °F 38.3 °F 64% 29.85 in 10.0 mi Calm Calm - N/A   Mostly Cloudy
3:55 AM 47.5 °F 36.5 °F 66% 29.84 in 10.0 mi Calm Calm - N/A   Scattered Clouds
4:15 AM 47.5 °F 36.5 °F 66% 29.84 in 10.0 mi Calm Calm - N/A   Clear
4:35 AM 47.3 °F 36.9 °F 67% 29.83 in 10.0 mi Calm Calm - N/A   Clear
4:55 AM 45.1 °F 36.5 °F 72% 29.83 in 10.0 mi Calm Calm - N/A   Clear
5:35 AM 45.1 °F 36.0 °F 70% 29.85 in 10.0 mi Calm Calm - N/A   Scattered Clouds
5:55 AM 45.1 °F 37.6 °F 75% 29.84 in 10.0 mi Calm Calm - N/A   Mostly Cloudy
6:15 AM 46.8 °F 37.8 °F 71% 29.84 in 10.0 mi Calm Calm - N/A   Mostly Cloudy
6:35 AM 46.2 °F 37.8 °F 72% 29.84 in 10.0 mi Calm Calm - N/A   Scattered Clouds
6:55 AM 46.8 °F 38.7 °F 73% 29.84 in 10.0 mi Calm Calm - N/A   Mostly Cloudy
7:15 AM 47.5 °F 39.2 °F 73% 29.85 in 10.0 mi Calm Calm - N/A   Mostly Cloudy
7:35 AM 50.0 °F 41.0 °F 71% 29.84 in 10.0 mi South 3.5 mph - N/A   Overcast
7:55 AM 50.0 °F 40.6 °F 70% 29.83 in 10.0 mi South 4.6 mph - N/A   Scattered Clouds
8:15 AM 50.0 °F 39.9 °F 68% 29.82 in 10.0 mi South 3.5 mph - N/A   Scattered Clouds
8:35 AM 50.0 °F 39.6 °F 67% 29.83 in 10.0 mi SW 3.5 mph - N/A   Clear
8:55 AM 52.7 °F 41.5 °F 66% 29.82 in 10.0 mi SSW 4.6 mph - N/A   Scattered Clouds
9:15 AM 52.7 °F 41.9 °F 67% 29.85 in 10.0 mi Calm Calm - N/A   Mostly Cloudy
9:35 AM 50.9 °F 42.6 °F 73% 29.87 in 7.0 mi Calm Calm - N/A Rain Rain
9:55 AM 50.0 °F 45.5 °F 85% 29.82 in 10.0 mi South 3.5 mph - 0.01 in   Mostly Cloudy
10:15 AM 50.0 °F 45.0 °F 83% 29.83 in 10.0 mi Calm Calm - N/A   Overcast
10:35 AM 50.0 °F 45.9 °F 86% 29.84 in 10.0 mi North 3.5 mph - N/A   Overcast
10:55 AM 51.8 °F 46.8 °F 83% 29.82 in 10.0 mi Calm Calm - N/A   Mostly Cloudy
11:15 AM 52.9 °F 46.9 °F 80% 29.82 in 10.0 mi Calm Calm - N/A   Mostly Cloudy
11:35 AM 55.0 °F 46.9 °F 74% 29.80 in 10.0 mi Calm Calm - N/A   Mostly Cloudy
11:55 AM 58.6 °F 47.7 °F 67% 29.79 in 10.0 mi SSW 4.6 mph - N/A   Scattered Clouds
12:15 PM 64.2 °F 49.6 °F 59% 29.78 in 10.0 mi SW 3.5 mph - N/A   Clear
12:35 PM 65.3 °F 47.8 °F 53% 29.76 in 10.0 mi SW 3.5 mph - N/A   Clear
12:55 PM 70.0 °F 50.4 °F 50% 29.75 in 10.0 mi SSW 3.5 mph - N/A   Clear
1:15 PM 70.3 °F 49.3 °F 47% 29.74 in 10.0 mi SW 3.5 mph - N/A   Clear
1:35 PM 72.5 °F 49.1 °F 44% 29.73 in 10.0 mi SSW 3.5 mph - N/A   Clear
1:55 PM 72.5 °F 47.5 °F 41% 29.73 in 10.0 mi SW 4.6 mph - N/A   Clear
2:15 PM 72.7 °F 47.7 °F 41% 29.72 in 10.0 mi Calm Calm - N/A   Clear
2:35 PM 75.2 °F 48.2 °F 38% 29.70 in 10.0 mi SW 3.5 mph - N/A   Clear
2:55 PM 75.2 °F 46.8 °F 36% 29.70 in 10.0 mi SSW 4.6 mph - N/A   Clear
3:15 PM 75.2 °F 47.8 °F 38% 29.69 in 10.0 mi SW 4.6 mph - N/A   Clear
3:35 PM 75.2 °F 48.4 °F 39% 29.68 in 10.0 mi Calm Calm - N/A   Clear
3:55 PM 75.2 °F 47.3 °F 37% 29.68 in 10.0 mi SW 4.6 mph - N/A   Clear
4:15 PM 72.5 °F 46.6 °F 40% 29.68 in 10.0 mi SSW 4.6 mph - N/A   Clear
4:35 PM 72.5 °F 47.3 °F 41% 29.67 in 10.0 mi Calm Calm - N/A   Clear
4:55 PM 72.5 °F 46.9 °F 40% 29.66 in 10.0 mi SW 5.8 mph - N/A   Clear
5:15 PM 73.2 °F 46.2 °F 38% 29.65 in 10.0 mi SSW 5.8 mph - N/A   Clear
5:35 PM 72.5 °F 45.1 °F 37% 29.65 in 10.0 mi SSW 5.8 mph - N/A   Clear
5:55 PM 72.5 °F 45.7 °F 38% 29.64 in 10.0 mi SSW 4.6 mph - N/A   Clear
6:15 PM 72.5 °F 46.8 °F 40% 29.63 in 10.0 mi SSW 5.8 mph - N/A   Clear
6:55 PM 70.0 °F 46.2 °F 43% 29.63 in 10.0 mi South 4.6 mph - N/A   Clear
7:15 PM 70.0 °F 45.5 °F 41% 29.63 in 10.0 mi South 4.6 mph - N/A   Clear
7:35 PM 70.0 °F 45.5 °F 41% 29.64 in 10.0 mi SSW 5.8 mph - N/A   Clear
7:55 PM 69.8 °F 48.2 °F 46% 29.67 in 10.0 mi Calm Calm - N/A   Mostly Cloudy
8:15 PM 65.3 °F 55.0 °F 69% 29.75 in 10.0 mi North 15.0 mph 28.8 mph N/A Rain Light Rain
8:35 PM 62.6 °F 55.9 °F 79% 29.78 in 10.0 mi North 8.1 mph 18.4 mph N/A Rain Light Rain
8:55 PM 60.1 °F 55.0 °F 83% 29.78 in 10.0 mi North 3.5 mph - N/A Rain Light Rain
9:15 PM 58.1 °F 53.8 °F 86% 29.79 in 10.0 mi Calm Calm - N/A   Mostly Cloudy
9:35 PM 57.6 °F 53.8 °F 87% 29.79 in 10.0 mi Calm Calm - N/A   Scattered Clouds
9:55 PM 56.1 °F 52.9 °F 89% 29.80 in 10.0 mi Calm Calm - N/A   Scattered Clouds
10:15 PM 55.4 °F 52.5 °F 90% 29.79 in 10.0 mi Calm Calm - N/A   Mostly Cloudy
10:35 PM 55.4 °F 52.7 °F 91% 29.80 in 10.0 mi Calm Calm - N/A   Mostly Cloudy
10:55 PM 55.0 °F 52.2 °F 90% 29.81 in 10.0 mi Calm Calm - N/A   Mostly Cloudy
11:15 PM 55.0 °F 52.3 °F 91% 29.81 in 10.0 mi Calm Calm - N/A   Mostly Cloudy
11:35 PM 55.0 °F 52.3 °F 91% 29.81 in 10.0 mi Calm Calm - N/A   Mostly Cloudy
11:55 PM 54.9 °F 52.3 °F 91% 29.82 in 10.0 mi Calm Calm - N/A   Scattered Clouds